Regional Weather Roundup
Issued by NWS Sterling, VA

Home | Current Version | Previous Version | Graphics & Text | Print | Product List | Glossary On
Versions: 1 2 3 4 5 6 7 8 9 10 11 12 13 14 15 16 17 18 19 20 21 22 23 24 25 26 27 28 29 30 31 32 33 34 35 36 37 38 39 40 41 42 43 44 45 46 47 48 49 50
575
ASUS41 KLWX 190911
RWRLWX

REGIONAL WEATHER ROUNDUP
NATIONAL WEATHER SERVICE BALTIMORE MD/WASHINGTON DC
500 AM EDT THU APR 19 2018

Note: "FAIR" indicates few or no clouds below 12,000 feet
with no significant weather and/or obstructions to visibility.
 TC=TEMPERATURE CELSIUS

 * =Non NWS site. Station does not report precipitation (e.g. rain,
    snow, etc.), thunder, or fog.

DCZ001-MDZ009-015-VAZ040>042-051-053>054-191000-
WASHINGTON METRO

CITY           SKY/WX    TMP DP  RH WIND       PRES   REMARKS
WASHINGTON NAT CLOUDY    51  41  68 N12       29.69R
DULLES         MOCLDY    50  40  68 N9        29.70R
ANDREWS AFB    CLOUDY    49  42  76 NW14      29.67R
FT BELVOIR     CLOUDY    51  40  67 N5        29.69R
QUANTICO       CLOUDY    51  44  77 N13       29.68R
COLLEGE PARK*  CLOUDY    50  39  67 N8        29.68R
LEESBURG*      CLOUDY    52  43  71 N9        29.69F
MANASSAS*      MOCLDY    48  40  73 N10       29.68R
GAITHERSBURG*  CLOUDY    49  39  68 N3        29.70F

$$

MDZ006>007-011-014-191000-
BALTIMORE METRO

CITY           SKY/WX    TMP DP  RH WIND       PRES   REMARKS
BWI AIRPORT    CLOUDY    51  38  60 N8        29.69R
MD SCIENCE CTR   N/A     53  36  52 MISG      29.70R
MARTIN STATE   CLOUDY    50  43  76 NW10      29.70R
ANNAPOLIS      CLOUDY    53  46  77 NW13      29.67R
FORT MEADE*    CLOUDY    50  37  62 N5        29.70R

$$

MDZ012-015-019>023-191000-
MARYLAND EASTERN SHORE

CITY           SKY/WX    TMP DP  RH WIND       PRES   REMARKS
OCEAN CITY     FAIR      53  51  93 W7        29.56S
SALISBURY      FAIR      46  46 100 CALM      29.56S
BAY BRIDGE AP* CLOUDY    50  45  81 N12G22    29.66R
CAMBRIDGE*     MOCLDY    46  43  87 NW10      29.61R
EASTON*        CLOUDY    48  41  76 N8        29.66R

$$

MDZ017>025-191000-
SOUTHERN MARYLAND

CITY           SKY/WX    TMP DP  RH WIND       PRES   REMARKS
PATUXENT RIVER MOCLDY    51  47  86 N15       29.62R
ST INIGOES     FAIR      49  47  93 VRB5      29.60R
LEONARDTOWN*   FAIR      45  45 100 NW6       29.67R

$$

MDZ003>005-191000-
NORTH CENTRAL MARYLAND

CITY           SKY/WX    TMP DP  RH WIND       PRES   REMARKS
FREDERICK*     CLOUDY    46  39  76 E8        29.71F
HAGERSTOWN APT CLOUDY    46  43  89 SE8       29.64F
WESTMINSTER*   DRIZZLE   46  43  87 N5        29.71R

$$

MDZ501>502-191000-
WESTERN MARYLAND

CITY           SKY/WX    TMP DP  RH WIND       PRES   REMARKS
OAKLAND*       MOCLDY    41  41 100 W5        29.65F
CUMBERLAND*    FAIR      45  45 100 CALM      29.72R

$$

VAZ025>031-191000-
SHENANDOAH VALLEY

CITY           SKY/WX    TMP DP  RH WIND       PRES   REMARKS
WINCHESTER*    CLOUDY    46  41  81 E6        29.68F
FRONT ROYAL*   MOCLDY    48  41  76 E5        29.65F
LURAY*         FAIR      50  41  71 E6        29.66F
NEW MARKET*    MOCLDY    47  42  85 CALM      29.64F
STAUNTON*      CLOUDY    50  43  76 NE7       29.68S
WAYNESBORO*    CLOUDY    49  43  79 CALM      29.66S

$$

WVZ021-048>050-054>055-191000-
EASTERN WEST VIRGINIA PANHANDLE

CITY           SKY/WX    TMP DP  RH WIND       PRES   REMARKS
MARTINSBURG    CLOUDY    46  43  89 E3        29.66F
PETERSBURG*    CLOUDY    47  43  87 S5        29.67F

$$

VAZ036>039-050-191000-
CENTRAL FOOTHILLS

CITY           SKY/WX    TMP DP  RH WIND       PRES   REMARKS
CHARLOTTESVILL FAIR      51  41  68 E5        29.65R
CULPEPER*      MOCLDY    48  40  75 NE3       29.68S
ORANGE*        CLOUDY    46  43  87 CALM      29.66F
GORDONSVILLE*  MOCLDY    51  44  77 NE5       29.65F
WARRENTON*     CLOUDY    49  39  68 N5        29.68S

$$

VAZ055>057-191000-
NORTH AND CENTRAL PIEDMONT

CITY           SKY/WX    TMP DP  RH WIND       PRES   REMARKS
FREDERICKSBRG* MOCLDY    49  49 100 NW5       29.68S
STAFFORD*      MOCLDY    49  48  95 NW7       29.72S

$$

NCZ024-NYZ072-PAZ021-071-VAZ022-071-191000-
OTHER REGIONAL OBSERVATIONS

CITY           SKY/WX    TMP DP  RH WIND       PRES   REMARKS
NEW YORK CITY  LGT RAIN  43  39  86 NE3       29.73R
PHILADELPHIA   CLOUDY    49  39  68 N10       29.69R
PITTSBURGH     CLOUDY    39  38  96 N5        29.70S
ROANOKE        LGT RAIN  60  51  72 N13       29.68R
RICHMOND       FAIR      48  48 100 NW6       29.61R
RALEIGH        FAIR      66  49  54 SW9       29.70S

$$

ANZ530>537-191000-
MARINE OBSERVATIONS

STATION/POSITION TIME  TEMP    WIND        PRES
                       AIR SEA DIR/SP/G
                 (UTC) (F)     (DEG/KT/KT) (MB)
THOMAS PT LIGHT  0900   50 50  340/ 18/ 20 1005.7R
BALT KEY BRIDGE  0842   50     350/ 12/ 13 1004.6R
COVE POINT       0842   49     360/ 10/ 16 1003.3R
LEWISETTA        0842   48 55  310/  4/  5 1001.6F
SOLOMONS ISLAND  0842   49 52  350/ 11/ 13 1002.6R
PINEY POINT      0842          350/ 14/ 17   N/A

$$





USA.gov is the U.S. government's official web portal to all federal, state and local government web resources and services.